(91271) = 1999 CB147 = 1997 SU33

Discovered at Kitt Peak on 1999-02-09 by Spacewatch.

Orbit

Orbit type: Main Belt

Note: WebGL enabled browser required.

epoch2023-09-13.0
epoch JD2460200.5
perihelion date2021-05-12.14143
perihelion JD2459346.64143
argument of perihelion (°)74.56204
ascending node (°)337.15059
inclination (°)7.53969
eccentricity0.1159936
perihelion distance (AU)1.9595233
Tisserand w.r.t. Jupiter3.6
ΔV w.r.t. Earth (km/sec)8.9
semimajor axis (AU)2.2166394
mean anomaly (°)255.00413
mean daily motion (°/day)0.29864910
aphelion distance (AU)2.474
period (years)3.3
P-vector [x]0.61636996
P-vector [y]0.66278703
P-vector [z]0.42520752
Q-vector [x]-0.78580661
Q-vector [y]0.55263796
Q-vector [z]0.27766752
absolute magnitude16.53
phase slope0.15
uncertainty0
referenceMPEC 2023-X132
observations used959
oppositions14
arc length (days)9007
first opposition used1997
last opposition used2022
residual rms (arc-secs)0.74
perturbers coarse indicatorM-v
perturbers precise indicator003Ek
first observation date used1997-09-27.0
last observation date used2022-05-26.0
computer nameMPCLINUX
JD of orbit computation2455988.811414
perihelion JD uncertainty (days)1.1030E-04
argument of perihelion uncertainty (°)4.6638E-05
ascending node uncertainty (°)2.8540E-05
inclination uncertainty (°)6.3554E-06
eccentricity uncertainty 4.1598E-08
perihelion distance uncertainty (AU)9.4379E-08
Minimum Orbit Intersection Distances (in AU)
for orbit epoch: 2460200.5, reference: E2023-XD2
Mercury1.64704
Venus1.25015
Earth0.98417
Mars0.4606
Jupiter2.83953
Saturn7.02022
Uranus16.113
Neptune27.8482

Observations

985 total observations over interval: 1997 09 27.52956 – 2022 05 26.178120
These data are available for download (format description).

Date (UT) J2000 RA J2000 Dec Magn Location Ref
1997 09 27.52956 21 55 30.15 -11 00 48.0 19.6   327 – Peking Observatory, Xinglong Station MPS 115
1997 09 27.64244 21 55 26.41 -11 00 37.6   327 – Peking Observatory, Xinglong Station MPS 115
1997 09 27.67367 21 55 25.42 -11 00 34.6   327 – Peking Observatory, Xinglong Station MPS 115
1997 09 28.54372 21 54 59.79 -10 59 11.7 19.7   327 – Peking Observatory, Xinglong Station MPS 115
1997 09 28.57794 21 54 58.73 -10 59 08.3 19.9   327 – Peking Observatory, Xinglong Station MPS 115
1997 09 28.61193 21 54 57.69 -10 59 05.0 19.6   327 – Peking Observatory, Xinglong Station MPS 115
1999 02 08.46136 11 27 37.39 +03 23 00.3 19.7 V 691 – Steward Observatory, Kitt Peak-Spacewatch MPS 5904
1999 02 08.48223 11 27 36.45 +03 23 01.2 19.7 V 691 – Steward Observatory, Kitt Peak-Spacewatch MPS 5904
1999 02 08.50414 11 27 35.39 +03 23 02.1 19.8 V 691 – Steward Observatory, Kitt Peak-Spacewatch MPS 5904
1999 02 09.37676 11 26 56.23 +03 23 40.8 19.5 V 691 – Steward Observatory, Kitt Peak-Spacewatch MPS 4203
1999 02 09.39833 11 26 55.19 +03 23 41.8 19.6 V 691 – Steward Observatory, Kitt Peak-Spacewatch MPS 4203
1999 02 09.41929 11 26 54.18 +03 23 42.7 19.5 V 691 – Steward Observatory, Kitt Peak-Spacewatch MPS 4203
1999 02 14.40874 11 22 44.18 +03 29 33.3 19.8 V 691 – Steward Observatory, Kitt Peak-Spacewatch MPS 4203
1999 02 14.43004 11 22 42.98 +03 29 35.2 19.7 V 691 – Steward Observatory, Kitt Peak-Spacewatch MPS 4203
1999 02 14.45112 11 22 41.80 +03 29 37.2 19.6 V 691 – Steward Observatory, Kitt Peak-Spacewatch MPS 4203
1999 02 16.38744 11 20 54.64 +03 32 47.6 19.4 V 691 – Steward Observatory, Kitt Peak-Spacewatch MPS 4203
1999 02 16.40843 11 20 53.34 +03 32 50.2 20.0 V 691 – Steward Observatory, Kitt Peak-Spacewatch MPS 4203
1999 02 16.42919 11 20 52.12 +03 32 52.4 20.7 V 691 – Steward Observatory, Kitt Peak-Spacewatch MPS 4203
1999 02 18.47648 11 18 53.13 +03 36 45.2 19.6 V 691 – Steward Observatory, Kitt Peak-Spacewatch MPS 79546
1999 02 18.49986 11 18 51.67 +03 36 46.9 20.3 V 691 – Steward Observatory, Kitt Peak-Spacewatch MPS 79546
1999 02 18.52092 11 18 50.41 +03 36 49.4 20.5 V 691 – Steward Observatory, Kitt Peak-Spacewatch MPS 79546
1999 03 06.22218 11 01 45.86 +04 17 51.2 19.4 V 691 – Steward Observatory, Kitt Peak-Spacewatch MPS 4203
1999 03 06.24337 11 01 44.37 +04 17 55.0 19.1 V 691 – Steward Observatory, Kitt Peak-Spacewatch MPS 4203
1999 03 06.26447 11 01 42.90 +04 17 58.8 19.1 V 691 – Steward Observatory, Kitt Peak-Spacewatch MPS 4203
1999 03 11.18227 10 56 13.27 +04 32 29.5 19.3 V 691 – Steward Observatory, Kitt Peak-Spacewatch MPS 4203
1999 03 11.20334 10 56 11.84 +04 32 33.4 19.7 V 691 – Steward Observatory, Kitt Peak-Spacewatch MPS 4203
1999 03 11.22415 10 56 10.43 +04 32 37.4 19.5 V 691 – Steward Observatory, Kitt Peak-Spacewatch MPS 4203
1999 03 16.21819 10 50 49.83 +04 46 45.3 19.8 V 691 – Steward Observatory, Kitt Peak-Spacewatch MPS 4203
1999 03 16.23937 10 50 48.47 +04 46 49.7 20.0 V 691 – Steward Observatory, Kitt Peak-Spacewatch MPS 4203
1999 03 16.26104 10 50 47.09 +04 46 53.5 19.8 V 691 – Steward Observatory, Kitt Peak-Spacewatch MPS 4203
2001 11 11.46530 08 28 11.82 +28 27 25.4 20.0   704 – Lincoln Laboratory ETS, New Mexico MPS 40148
2001 11 11.47991 08 28 12.60 +28 27 25.4 19.7   704 – Lincoln Laboratory ETS, New Mexico MPS 40148
2001 11 11.49439 08 28 13.44 +28 27 25.3 19.3   704 – Lincoln Laboratory ETS, New Mexico MPS 40148
2001 11 20.36821 08 35 23.51 +28 21 54.3 19.3 R 699 – Lowell Observatory-LONEOS MPS 41650
2001 11 20.39038 08 35 24.32 +28 21 54.3   699 – Lowell Observatory-LONEOS MPS 41650
2001 11 20.41255 08 35 25.07 +28 21 55.8   699 – Lowell Observatory-LONEOS MPS 41650
2001 11 20.43468 08 35 25.90 +28 21 54.7   699 – Lowell Observatory-LONEOS MPS 41650
2001 12 13.36559 08 40 01.88 +28 41 47.7 19.6   704 – Lincoln Laboratory ETS, New Mexico MPS 42999
2001 12 13.38131 08 40 01.55 +28 41 49.2 20.3   704 – Lincoln Laboratory ETS, New Mexico MPS 42999
2001 12 13.39657 08 40 01.19 +28 41 50.2 19.5   704 – Lincoln Laboratory ETS, New Mexico MPS 42999
2001 12 13.41206 08 40 00.93 +28 41 52.7 19.9   704 – Lincoln Laboratory ETS, New Mexico MPS 42999
2001 12 14.44536 08 39 41.66 +28 43 51.7 19.2   704 – Lincoln Laboratory ETS, New Mexico MPS 42999
2001 12 14.46072 08 39 41.28 +28 43 53.4 19.6   704 – Lincoln Laboratory ETS, New Mexico MPS 42999
2001 12 14.47607 08 39 40.93 +28 43 54.7 19.9   704 – Lincoln Laboratory ETS, New Mexico MPS 42999
2001 12 14.49143 08 39 40.63 +28 43 55.9 19.7   704 – Lincoln Laboratory ETS, New Mexico MPS 42999
2001 12 14.50678 08 39 40.28 +28 43 56.8 19.5   704 – Lincoln Laboratory ETS, New Mexico MPS 42999
2001 12 19.52188 08 37 26.93 +28 54 06.7 19.3   644 – Palomar Mountain/NEAT MPS 42999
2001 12 19.53249 08 37 26.53 +28 54 07.9 19.4   644 – Palomar Mountain/NEAT MPS 42999
2001 12 19.54293 08 37 26.16 +28 54 09.1 19.2   644 – Palomar Mountain/NEAT MPS 42999
2001 12 21.39364 08 36 20.85 +28 58 07.4 19.7   704 – Lincoln Laboratory ETS, New Mexico MPS 42999
2001 12 21.40926 08 36 20.18 +28 58 10.3 20.1   704 – Lincoln Laboratory ETS, New Mexico MPS 42999
2001 12 21.42449 08 36 19.59 +28 58 12.6 19.5   704 – Lincoln Laboratory ETS, New Mexico MPS 42999
2001 12 21.43894 08 36 19.02 +28 58 13.1 19.1   704 – Lincoln Laboratory ETS, New Mexico MPS 42999
2001 12 21.43906 08 36 18.95 +28 58 13.0 18.7   704 – Lincoln Laboratory ETS, New Mexico MPS 42999
2001 12 21.45414 08 36 18.31 +28 58 14.2 19.4   704 – Lincoln Laboratory ETS, New Mexico MPS 42999
2001 12 21.45426 08 36 18.33 +28 58 15.0 19.0   704 – Lincoln Laboratory ETS, New Mexico MPS 42999
2001 12 21.46933 08 36 17.71 +28 58 16.9 19.2   704 – Lincoln Laboratory ETS, New Mexico MPS 42999
2001 12 21.46946 08 36 17.71 +28 58 16.3 19.6   704 – Lincoln Laboratory ETS, New Mexico MPS 42999
2001 12 21.48454 08 36 17.11 +28 58 18.1 19.2   704 – Lincoln Laboratory ETS, New Mexico MPS 42999
2001 12 21.48467 08 36 17.08 +28 58 18.1 19.1   704 – Lincoln Laboratory ETS, New Mexico MPS 42999
2001 12 21.49981 08 36 16.43 +28 58 20.1 19.4   704 – Lincoln Laboratory ETS, New Mexico MPS 42999
2001 12 21.49993 08 36 16.47 +28 58 20.5 19.4   704 – Lincoln Laboratory ETS, New Mexico MPS 42999
2002 01 05.25586 08 22 51.89 +29 27 11.8 19.6   644 – Palomar Mountain/NEAT MPS 46443
2002 01 05.31949 08 22 47.36 +29 27 18.5 19.1   644 – Palomar Mountain/NEAT MPS 46443
2002 01 05.39630 08 22 41.84 +29 27 25.2 19.3   644 – Palomar Mountain/NEAT MPS 46443
2002 01 08.33131 08 19 13.42 +29 31 08.6 19.0   704 – Lincoln Laboratory ETS, New Mexico MPS 48575
2002 01 08.36272 08 19 10.96 +29 31 10.2 18.8   704 – Lincoln Laboratory ETS, New Mexico MPS 48575
2002 01 08.37807 08 19 09.81 +29 31 11.5 19.3   704 – Lincoln Laboratory ETS, New Mexico MPS 48575
2002 01 08.39474 08 19 08.59 +29 31 12.8 19.3   704 – Lincoln Laboratory ETS, New Mexico MPS 48575
2002 01 11.25230 08 15 36.16 +29 33 46.2 18.1 R 699 – Lowell Observatory-LONEOS MPS 48575
2002 01 11.28074 08 15 33.83 +29 33 45.0   699 – Lowell Observatory-LONEOS MPS 48575
2002 01 11.30916 08 15 31.47 +29 33 45.6   699 – Lowell Observatory-LONEOS MPS 48575
2002 01 11.35394 08 15 27.93 +29 33 48.7   699 – Lowell Observatory-LONEOS MPS 48575
2002 01 14.376030 08 11 34.917 +29 35 05.00 18.95 V 645 – Apache Point-Sloan Digital Sky Survey MPS 79546
2002 01 14.379502 08 11 34.633 +29 35 05.01 19.78   645 – Apache Point-Sloan Digital Sky Survey MPS 79546
2002 02 04.23456 07 46 09.34 +29 00 11.9 19.1   644 – Palomar Mountain/NEAT MPS 51464
2002 02 04.25558 07 46 08.00 +29 00 07.4 19.1   644 – Palomar Mountain/NEAT MPS 51464
2002 02 04.27653 07 46 06.69 +29 00 03.1 18.9   644 – Palomar Mountain/NEAT MPS 51464
2002 02 06.25921 07 44 11.22 +28 52 54.6 19.9   704 – Lincoln Laboratory ETS, New Mexico MPS 48575
2002 02 06.27415 07 44 10.31 +28 52 50.8 19.9   704 – Lincoln Laboratory ETS, New Mexico MPS 48575
2002 02 06.28944 07 44 09.39 +28 52 46.8 19.8   704 – Lincoln Laboratory ETS, New Mexico MPS 48575
2002 02 06.30433 07 44 08.57 +28 52 42.2 19.8   704 – Lincoln Laboratory ETS, New Mexico MPS 48575
2002 02 08.24241 07 42 23.34 +28 45 15.0 19.5   704 – Lincoln Laboratory ETS, New Mexico MPS 51464
